EZY596Z EGPF-EGAC

Flight info

Callsign EZY596Z
Flight time 0h 29m
Altitude 18000
Route NORBO L186 TRN P600 BLACA DCT MAGEE
Aircraft A319/M-SDE3FGHIRWY/LB1

Departure

Time 2026-04-29 16:47
Airport Glasgow Airport (EGPF)

Arrival

Time 2026-04-29 17:16
Airport George Best Belfast City Airport (EGAC)
Time Latitude Longitude Altitude Speed Heading
2026-04-29 16:25 55.86696 -4.43483 29 ft 0 kts 128°
2026-04-29 16:25 55.86694 -4.43478 29 ft 0 kts 128°
2026-04-29 16:41 55.86707 -4.43512 29 ft 4 kts 112°
2026-04-29 16:41 55.86713 -4.43556 29 ft 4 kts 80°
2026-04-29 16:41 55.86703 -4.43595 29 ft 4 kts 30°
2026-04-29 16:41 55.86687 -4.43602 29 ft 0 kts 343°
2026-04-29 16:44 55.86699 -4.43608 29 ft 4 kts 343°
2026-04-29 16:44 55.86733 -4.43637 29 ft 7 kts 316°
2026-04-29 16:44 55.86731 -4.43752 29 ft 13 kts 250°
2026-04-29 16:44 55.86661 -4.43891 29 ft 17 kts 226°
2026-04-29 16:45 55.86579 -4.44045 29 ft 18 kts 226°
2026-04-29 16:45 55.86494 -4.44204 29 ft 18 kts 227°
2026-04-29 16:45 55.86406 -4.44368 29 ft 18 kts 226°
2026-04-29 16:45 55.86330 -4.44510 29 ft 14 kts 226°
2026-04-29 16:46 55.86263 -4.44637 29 ft 11 kts 232°
2026-04-29 16:46 55.86279 -4.44758 29 ft 11 kts 315°
2026-04-29 16:46 55.86335 -4.44853 29 ft 10 kts 316°
2026-04-29 16:46 55.86392 -4.44823 29 ft 14 kts 43°
2026-04-29 16:47 55.86637 -4.44371 29 ft 91 kts 46°
2026-04-29 16:47 55.87230 -4.43259 57 ft 151 kts 47°
2026-04-29 16:47 55.87960 -4.41925 737 ft 150 kts 46°
2026-04-29 16:47 55.88689 -4.40560 1471 ft 156 kts 51°
2026-04-29 16:48 55.89480 -4.39067 1865 ft 180 kts 50°
2026-04-29 16:48 55.90384 -4.37357 2382 ft 199 kts 50°
2026-04-29 16:48 55.91397 -4.35446 2793 ft 226 kts 50°
2026-04-29 16:48 55.92539 -4.33305 3382 ft 249 kts 49°
2026-04-29 16:49 55.94033 -4.31617 4229 ft 268 kts 18°
2026-04-29 16:49 55.95934 -4.31670 5101 ft 284 kts 343°
2026-04-29 16:49 55.97576 -4.33624 6080 ft 290 kts 309°
2026-04-29 16:49 55.98408 -4.36882 7034 ft 293 kts 277°
2026-04-29 16:50 55.98355 -4.40505 7958 ft 293 kts 250°
2026-04-29 16:50 55.97438 -4.43706 8872 ft 292 kts 233°
2026-04-29 16:50 55.96437 -4.46904 9815 ft 298 kts 237°
2026-04-29 16:50 55.95427 -4.50169 10697 ft 300 kts 230°
2026-04-29 16:51 55.94040 -4.52968 11297 ft 311 kts 220°
2026-04-29 16:51 55.92451 -4.55788 11619 ft 334 kts 219°
2026-04-29 16:51 55.90751 -4.58751 11934 ft 355 kts 219°
2026-04-29 16:51 55.88961 -4.61875 12585 ft 364 kts 219°
2026-04-29 16:52 55.87119 -4.64998 13352 ft 366 kts 214°
2026-04-29 16:52 55.85070 -4.67703 14117 ft 368 kts 210°
2026-04-29 16:52 55.82942 -4.70261 14805 ft 371 kts 207°
2026-04-29 16:52 55.80696 -4.72531 15483 ft 370 kts 198°
2026-04-29 16:53 55.78262 -4.73949 16167 ft 367 kts 187°
2026-04-29 16:53 55.75740 -4.74590 16862 ft 366 kts 178°
2026-04-29 16:53 55.73183 -4.74819 17547 ft 370 kts 178°
2026-04-29 16:53 55.70599 -4.75072 18166 ft 374 kts 178°
2026-04-29 16:54 55.67990 -4.75339 18368 ft 377 kts 178°
2026-04-29 16:54 55.65303 -4.75609 18404 ft 397 kts 178°
2026-04-29 16:54 55.62503 -4.75886 18401 ft 407 kts 178°
2026-04-29 16:54 55.59659 -4.76169 18402 ft 409 kts 178°
2026-04-29 16:55 55.56809 -4.76438 18396 ft 410 kts 178°
2026-04-29 16:55 55.53995 -4.76674 18396 ft 409 kts 178°
2026-04-29 16:55 55.51153 -4.76892 18396 ft 409 kts 178°
2026-04-29 16:55 55.48307 -4.77107 18391 ft 410 kts 179°
2026-04-29 16:56 55.45488 -4.78065 18389 ft 419 kts 194°
2026-04-29 16:56 55.42746 -4.79858 18412 ft 420 kts 195°
2026-04-29 16:56 55.40015 -4.81690 18391 ft 420 kts 195°
2026-04-29 16:56 55.37286 -4.83534 18383 ft 420 kts 195°
2026-04-29 16:57 55.34557 -4.85373 18384 ft 420 kts 195°
2026-04-29 16:57 55.31826 -4.87204 18388 ft 420 kts 195°
2026-04-29 16:57 55.29093 -4.89025 18390 ft 420 kts 195°
2026-04-29 16:57 55.26361 -4.90842 18390 ft 420 kts 195°
2026-04-29 16:58 55.23626 -4.92660 18385 ft 420 kts 195°
2026-04-29 16:58 55.20887 -4.94479 18389 ft 420 kts 195°
2026-04-29 16:58 55.18187 -4.96269 18398 ft 420 kts 195°
2026-04-29 16:58 55.15455 -4.98078 18417 ft 420 kts 195°
2026-04-29 16:59 55.12718 -4.99888 18408 ft 420 kts 195°
2026-04-29 16:59 55.09985 -5.01689 18404 ft 420 kts 195°
2026-04-29 16:59 55.07251 -5.03489 18401 ft 420 kts 195°
2026-04-29 16:59 55.04511 -5.05290 18398 ft 421 kts 195°
2026-04-29 17:00 55.01775 -5.07086 18394 ft 420 kts 195°
2026-04-29 17:00 54.99036 -5.08882 18400 ft 420 kts 195°
2026-04-29 17:00 54.96299 -5.10672 18399 ft 420 kts 195°
2026-04-29 17:00 54.93563 -5.12496 18389 ft 422 kts 198°
2026-04-29 17:01 54.91035 -5.14987 18276 ft 414 kts 210°
2026-04-29 17:01 54.88878 -5.18341 17706 ft 419 kts 223°
2026-04-29 17:01 54.87209 -5.22441 17155 ft 424 kts 236°
2026-04-29 17:01 54.86049 -5.27154 16592 ft 426 kts 246°
2026-04-29 17:02 54.85083 -5.31999 16031 ft 423 kts 246°
2026-04-29 17:02 54.84158 -5.36570 15502 ft 418 kts 246°
2026-04-29 17:02 54.83221 -5.41151 14868 ft 414 kts 245°
2026-04-29 17:02 54.82256 -5.45840 14235 ft 410 kts 245°
2026-04-29 17:03 54.81299 -5.50465 13554 ft 404 kts 245°
2026-04-29 17:03 54.80270 -5.54931 12848 ft 393 kts 237°
2026-04-29 17:03 54.78638 -5.58568 12164 ft 375 kts 216°
2026-04-29 17:03 54.76579 -5.61217 11429 ft 366 kts 209°
2026-04-29 17:04 54.74490 -5.63678 10698 ft 361 kts 209°
2026-04-29 17:04 54.72454 -5.66047 10533 ft 343 kts 209°
2026-04-29 17:04 54.70543 -5.68281 10411 ft 327 kts 209°
2026-04-29 17:04 54.68704 -5.70444 10289 ft 313 kts 209°
2026-04-29 17:05 54.66938 -5.72531 10160 ft 300 kts 209°
2026-04-29 17:05 54.65248 -5.74541 10010 ft 289 kts 209°
2026-04-29 17:05 54.63613 -5.76491 9709 ft 284 kts 209°
2026-04-29 17:05 54.61991 -5.78425 9332 ft 282 kts 209°
2026-04-29 17:06 54.60382 -5.80345 8918 ft 282 kts 209°
2026-04-29 17:06 54.58766 -5.82263 8512 ft 281 kts 209°
2026-04-29 17:06 54.57156 -5.84166 8101 ft 279 kts 209°
2026-04-29 17:06 54.55557 -5.86042 7611 ft 277 kts 209°
2026-04-29 17:07 54.53967 -5.87903 7149 ft 276 kts 209°
2026-04-29 17:07 54.52918 -5.89125 6939 ft 271 kts 209°
2026-04-29 17:07 54.50909 -5.91462 6771 ft 251 kts 208°
2026-04-29 17:07 54.49494 -5.93130 6506 ft 243 kts 209°
2026-04-29 17:08 54.48110 -5.94764 6186 ft 240 kts 209°
2026-04-29 17:08 54.46737 -5.96376 5818 ft 239 kts 209°
2026-04-29 17:08 54.45372 -5.97974 5426 ft 236 kts 209°
2026-04-29 17:08 54.44033 -5.99542 5002 ft 236 kts 208°
2026-04-29 17:09 54.42671 -6.01152 4672 ft 231 kts 208°
2026-04-29 17:09 54.41414 -6.02677 4536 ft 218 kts 208°
2026-04-29 17:09 54.40220 -6.04169 4425 ft 205 kts 210°
2026-04-29 17:09 54.39345 -6.06124 4070 ft 217 kts 244°
2026-04-29 17:10 54.39272 -6.08742 3732 ft 226 kts 282°
2026-04-29 17:10 54.40160 -6.10878 3386 ft 220 kts 331°
2026-04-29 17:10 54.41558 -6.11363 3064 ft 198 kts 21°
2026-04-29 17:10 54.42636 -6.10149 3033 ft 185 kts 52°
2026-04-29 17:11 54.43663 -6.08775 3009 ft 189 kts 43°
2026-04-29 17:11 54.44756 -6.07517 3006 ft 189 kts 43°
2026-04-29 17:11 54.45843 -6.06245 3004 ft 189 kts 43°
2026-04-29 17:11 54.46926 -6.04965 3017 ft 188 kts 43°
2026-04-29 17:12 54.47964 -6.03744 3008 ft 174 kts 44°
2026-04-29 17:12 54.48944 -6.02582 2918 ft 168 kts 44°
2026-04-29 17:12 54.49889 -6.01458 2743 ft 167 kts 44°
2026-04-29 17:12 54.50213 -6.01072 2670 ft 167 kts 44°
2026-04-29 17:13 54.51762 -5.99232 2318 ft 162 kts 44°
2026-04-29 17:13 54.52673 -5.98153 2111 ft 150 kts 44°
2026-04-29 17:13 54.53480 -5.97199 1907 ft 132 kts 44°
2026-04-29 17:13 54.54211 -5.96329 1730 ft 124 kts 44°
2026-04-29 17:14 54.54911 -5.95492 1572 ft 121 kts 44°
2026-04-29 17:14 54.55596 -5.94673 1408 ft 119 kts 45°
2026-04-29 17:14 54.56277 -5.93860 1238 ft 119 kts 44°
2026-04-29 17:14 54.56729 -5.93322 1133 ft 120 kts 42°
2026-04-29 17:15 54.57419 -5.92499 962 ft 120 kts 41°
2026-04-29 17:15 54.58109 -5.91677 833 ft 120 kts 39°
2026-04-29 17:15 54.59028 -5.90584 606 ft 122 kts 39°
2026-04-29 17:15 54.59731 -5.89737 406 ft 121 kts 36°
2026-04-29 17:16 54.60427 -5.88909 245 ft 122 kts 38°
2026-04-29 17:16 54.61131 -5.88071 67 ft 122 kts 39°
2026-04-29 17:16 54.61583 -5.87521 26 ft 108 kts 36°
2026-04-29 17:16 54.62055 -5.86953 17 ft 43 kts 35°
2026-04-29 17:17 54.62139 -5.86892 16 ft 2 kts 270°
2026-04-29 17:17 54.62121 -5.86904 16 ft 7 kts 206°
2026-04-29 17:17 54.62039 -5.86981 17 ft 20 kts 214°
2026-04-29 17:17 54.61887 -5.87157 19 ft 30 kts 206°
2026-04-29 17:18 54.61751 -5.86998 21 ft 19 kts 157°